TKY91K EHRD-LQTZ

Flight info

Callsign TKY91K
Flight time 1h 55m
Altitude 39000
Route ARNEM DCT GMH Q603 TESGA Z719 ETOLU Z723 KONAP DCT OSBIT DCT KEMES DCT LAMSI DCT NURMI DCT SUNIS DCT VEBAL DCT GUBOK DCT DER
Aircraft A20N/M-SDE2E3FGHIRWXY/LB1

Departure

Time 2026-04-24 10:17
Airport Rotterdam The Hague Airport (EHRD)

Arrival

Time 2026-04-24 12:12
Airport Tuzla International Airport (LQTZ)
Time Latitude Longitude Altitude Speed Heading
2026-04-24 10:06 51.95089 4.43431 -6 ft 0 kts 327°
2026-04-24 10:13 51.95090 4.43431 -6 ft 1 kts 327°
2026-04-24 10:14 51.95110 4.43411 -6 ft 7 kts 336°
2026-04-24 10:14 51.95158 4.43473 -6 ft 14 kts 56°
2026-04-24 10:14 51.95220 4.43462 -8 ft 11 kts 324°
2026-04-24 10:14 51.95219 4.43347 -7 ft 13 kts 237°
2026-04-24 10:15 51.95161 4.43193 -7 ft 18 kts 239°
2026-04-24 10:15 51.95111 4.43019 -5 ft 3 kts 253°
2026-04-24 10:15 51.95121 4.42948 -5 ft 17 kts 310°
2026-04-24 10:16 51.95208 4.42861 -4 ft 6 kts 354°
2026-04-24 10:16 51.95243 4.42914 -3 ft 10 kts 56°
2026-04-24 10:16 51.95362 4.43207 -5 ft 67 kts 57°
2026-04-24 10:16 51.95743 4.44158 -7 ft 130 kts 58°
2026-04-24 10:17 51.96299 4.45566 297 ft 152 kts 53°
2026-04-24 10:17 51.96886 4.46967 991 ft 153 kts 53°
2026-04-24 10:17 51.97461 4.48416 1797 ft 151 kts 56°
2026-04-24 10:17 51.98003 4.49914 2408 ft 151 kts 59°
2026-04-24 10:18 51.98493 4.51427 2499 ft 155 kts 62°
2026-04-24 10:18 51.98973 4.53093 2670 ft 173 kts 62°
2026-04-24 10:18 51.99516 4.54977 2872 ft 197 kts 62°
2026-04-24 10:18 52.00258 4.56989 3266 ft 220 kts 45°
2026-04-24 10:19 52.01565 4.58452 3894 ft 239 kts 24°
2026-04-24 10:19 52.03139 4.59577 4575 ft 252 kts 23°
2026-04-24 10:19 52.04710 4.60885 5521 ft 256 kts 32°
2026-04-24 10:19 52.06098 4.62680 6436 ft 261 kts 43°
2026-04-24 10:20 52.07381 4.64863 7362 ft 266 kts 45°
2026-04-24 10:20 52.08649 4.67014 8221 ft 269 kts 45°
2026-04-24 10:20 52.09962 4.69228 9100 ft 274 kts 45°
2026-04-24 10:20 52.11292 4.71468 9997 ft 277 kts 45°
2026-04-24 10:21 52.12650 4.73758 10721 ft 287 kts 45°
2026-04-24 10:21 52.14083 4.76206 11002 ft 311 kts 48°
2026-04-24 10:21 52.15373 4.79138 11317 ft 331 kts 59°
2026-04-24 10:21 52.16327 4.82635 12022 ft 338 kts 70°
2026-04-24 10:22 52.17015 4.86332 12794 ft 343 kts 71°
2026-04-24 10:22 52.17720 4.90074 13539 ft 348 kts 71°
2026-04-24 10:22 52.18443 4.93880 14259 ft 353 kts 71°
2026-04-24 10:22 52.19161 4.97666 14937 ft 356 kts 71°
2026-04-24 10:23 52.19898 5.01561 15577 ft 361 kts 72°
2026-04-24 10:23 52.20642 5.05501 16218 ft 366 kts 72°
2026-04-24 10:23 52.21391 5.09491 16865 ft 370 kts 72°
2026-04-24 10:23 52.22149 5.13536 17480 ft 375 kts 72°
2026-04-24 10:24 52.22914 5.17628 18095 ft 380 kts 72°
2026-04-24 10:24 52.23669 5.21795 18712 ft 384 kts 76°
2026-04-24 10:24 52.24125 5.26115 19260 ft 388 kts 85°
2026-04-24 10:24 52.24183 5.30527 19820 ft 391 kts 94°
2026-04-24 10:25 52.23953 5.34971 20381 ft 394 kts 95°
2026-04-24 10:25 52.23721 5.39437 20937 ft 398 kts 95°
2026-04-24 10:25 52.23493 5.43959 21482 ft 401 kts 95°
2026-04-24 10:25 52.23259 5.48514 22056 ft 404 kts 97°
2026-04-24 10:26 52.22800 5.52985 22580 ft 406 kts 105°
2026-04-24 10:26 52.21966 5.57416 23116 ft 408 kts 112°
2026-04-24 10:26 52.20912 5.61703 23627 ft 411 kts 113°
2026-04-24 10:26 52.19851 5.66040 24143 ft 413 kts 113°
2026-04-24 10:27 52.18788 5.70408 24624 ft 415 kts 113°
2026-04-24 10:27 52.17724 5.74779 25088 ft 416 kts 113°
2026-04-24 10:27 52.16654 5.79169 25537 ft 419 kts 113°
2026-04-24 10:27 52.15574 5.83585 26006 ft 420 kts 113°
2026-04-24 10:28 52.14489 5.88014 26437 ft 422 kts 113°
2026-04-24 10:28 52.13395 5.92465 26856 ft 424 kts 113°
2026-04-24 10:28 52.12293 5.96942 27267 ft 426 kts 113°
2026-04-24 10:28 52.11186 6.01430 27699 ft 428 kts 113°
2026-04-24 10:29 52.09951 6.05858 28090 ft 429 kts 119°
2026-04-24 10:29 52.08433 6.09975 28468 ft 430 kts 126°
2026-04-24 10:29 52.07259 6.12564 28706 ft 431 kts 130°
2026-04-24 10:30 52.06479 6.14128 28858 ft 432 kts 130°
2026-04-24 10:30 52.04583 6.17929 29251 ft 433 kts 130°
2026-04-24 10:30 52.02692 6.21741 29616 ft 435 kts 129°
2026-04-24 10:31 52.00799 6.25580 29932 ft 437 kts 129°
2026-04-24 10:31 51.98889 6.29433 30270 ft 439 kts 130°
2026-04-24 10:31 51.96962 6.33302 30566 ft 441 kts 130°
2026-04-24 10:31 51.95032 6.37169 30874 ft 442 kts 130°
2026-04-24 10:32 51.93100 6.41042 31162 ft 444 kts 130°
2026-04-24 10:32 51.91157 6.44934 31468 ft 445 kts 130°
2026-04-24 10:32 51.89202 6.48847 31835 ft 445 kts 130°
2026-04-24 10:32 51.87279 6.52691 32256 ft 443 kts 130°
2026-04-24 10:33 51.85321 6.56598 32639 ft 442 kts 130°
2026-04-24 10:33 51.83412 6.60402 33002 ft 441 kts 130°
2026-04-24 10:33 51.81477 6.64252 33363 ft 440 kts 130°
2026-04-24 10:33 51.79553 6.68072 33746 ft 438 kts 130°
2026-04-24 10:34 51.77629 6.71890 34089 ft 437 kts 130°
2026-04-24 10:34 51.75708 6.75694 34394 ft 437 kts 130°
2026-04-24 10:34 51.73796 6.79475 34672 ft 436 kts 130°
2026-04-24 10:34 51.71876 6.83265 34970 ft 434 kts 130°
2026-04-24 10:35 51.69966 6.87029 35214 ft 434 kts 130°
2026-04-24 10:35 51.68056 6.90791 35453 ft 433 kts 130°
2026-04-24 10:35 51.66141 6.94553 35695 ft 433 kts 130°
2026-04-24 10:35 51.64236 6.98293 35959 ft 432 kts 130°
2026-04-24 10:36 51.62328 7.02032 36182 ft 431 kts 130°
2026-04-24 10:36 51.60431 7.05743 36385 ft 431 kts 130°
2026-04-24 10:36 51.58524 7.09471 36588 ft 431 kts 130°
2026-04-24 10:36 51.56617 7.13190 36821 ft 430 kts 130°
2026-04-24 10:37 51.54716 7.16894 37015 ft 429 kts 130°
2026-04-24 10:37 51.52812 7.20600 37201 ft 429 kts 130°
2026-04-24 10:37 51.50911 7.24292 37392 ft 429 kts 130°
2026-04-24 10:37 51.49017 7.27967 37595 ft 428 kts 130°
2026-04-24 10:38 51.47135 7.31611 37768 ft 427 kts 130°
2026-04-24 10:38 51.45234 7.35289 37930 ft 427 kts 130°
2026-04-24 10:38 51.43342 7.38943 38070 ft 427 kts 130°
2026-04-24 10:38 51.41433 7.42624 38269 ft 426 kts 130°
2026-04-24 10:39 51.39536 7.46279 38423 ft 426 kts 130°
2026-04-24 10:39 51.37646 7.49914 38575 ft 425 kts 130°
2026-04-24 10:39 51.35752 7.53552 38708 ft 425 kts 130°
2026-04-24 10:39 51.34502 7.55950 38815 ft 425 kts 130°
2026-04-24 10:40 51.32608 7.59578 38940 ft 424 kts 130°
2026-04-24 10:40 51.28810 7.66841 39096 ft 425 kts 130°
2026-04-24 10:41 51.25008 7.74088 39257 ft 426 kts 130°
2026-04-24 10:41 51.21220 7.81292 39263 ft 428 kts 130°
2026-04-24 10:42 51.17094 7.88200 39250 ft 433 kts 138°
2026-04-24 10:42 51.12270 7.94130 39243 ft 438 kts 146°
2026-04-24 10:43 51.07118 7.99323 39236 ft 442 kts 147°
2026-04-24 10:43 51.01912 8.04597 39230 ft 445 kts 146°
2026-04-24 10:44 50.96680 8.09889 39229 ft 446 kts 146°
2026-04-24 10:44 50.91433 8.15181 39231 ft 447 kts 146°
2026-04-24 10:45 50.86176 8.20464 39230 ft 448 kts 146°
2026-04-24 10:45 50.80895 8.25759 39231 ft 449 kts 146°
2026-04-24 10:46 50.75660 8.30994 39234 ft 448 kts 146°
2026-04-24 10:46 50.70379 8.36260 39227 ft 448 kts 146°
2026-04-24 10:47 50.65090 8.41520 39225 ft 449 kts 146°
2026-04-24 10:47 50.59806 8.46762 39220 ft 449 kts 146°
2026-04-24 10:48 50.54524 8.51988 39215 ft 448 kts 146°
2026-04-24 10:48 50.49237 8.57204 39208 ft 449 kts 146°
2026-04-24 10:49 50.44055 8.62561 39209 ft 448 kts 140°
2026-04-24 10:49 50.39133 8.68511 39216 ft 449 kts 147°
2026-04-24 10:50 50.33677 8.73320 39207 ft 449 kts 146°
2026-04-24 10:50 50.31187 8.76218 39210 ft 445 kts 134°
2026-04-24 10:50 50.29168 8.79850 39209 ft 443 kts 122°
2026-04-24 10:50 50.27697 8.84074 39211 ft 441 kts 111°
2026-04-24 10:51 50.26687 8.88600 39208 ft 441 kts 106°
2026-04-24 10:51 50.24903 8.97771 39211 ft 442 kts 107°
2026-04-24 10:52 50.22956 9.06862 39205 ft 441 kts 108°
2026-04-24 10:52 50.20963 9.15934 39205 ft 441 kts 108°
2026-04-24 10:53 50.19145 9.25059 39196 ft 439 kts 102°
2026-04-24 10:53 50.18274 9.34426 39195 ft 439 kts 93°
2026-04-24 10:54 50.18189 9.43945 39196 ft 438 kts 95°
2026-04-24 10:54 50.16838 9.53200 39187 ft 440 kts 110°
2026-04-24 10:55 50.13894 9.61597 39188 ft 443 kts 121°
2026-04-24 10:55 50.10560 9.69683 39187 ft 443 kts 121°
2026-04-24 10:56 50.07240 9.77757 39189 ft 442 kts 119°
2026-04-24 10:56 50.04253 9.86112 39179 ft 442 kts 116°
2026-04-24 10:57 50.01309 9.94488 39182 ft 441 kts 116°
2026-04-24 10:57 49.98365 10.02818 39182 ft 442 kts 116°
2026-04-24 10:58 49.95403 10.11167 39184 ft 442 kts 116°
2026-04-24 10:58 49.92426 10.19527 39188 ft 442 kts 116°
2026-04-24 10:59 49.89444 10.27876 39192 ft 442 kts 116°
2026-04-24 10:59 49.86474 10.36165 39191 ft 442 kts 116°
2026-04-24 11:00 49.83482 10.44487 39194 ft 442 kts 116°
2026-04-24 11:00 49.80485 10.52797 39186 ft 442 kts 116°
2026-04-24 11:01 49.77484 10.61090 39182 ft 441 kts 116°
2026-04-24 11:01 49.74475 10.69380 39181 ft 442 kts 116°
2026-04-24 11:02 49.71451 10.77684 39175 ft 443 kts 116°
2026-04-24 11:02 49.68421 10.85978 39173 ft 443 kts 116°
2026-04-24 11:03 49.65382 10.94272 39176 ft 444 kts 117°
2026-04-24 11:03 49.62333 11.02566 39180 ft 445 kts 117°
2026-04-24 11:04 49.59269 11.10872 39183 ft 446 kts 117°
2026-04-24 11:04 49.56196 11.19176 39182 ft 446 kts 117°
2026-04-24 11:05 49.53126 11.27502 39179 ft 447 kts 116°
2026-04-24 11:05 49.50088 11.35859 39176 ft 447 kts 116°
2026-04-24 11:06 49.47059 11.44172 39170 ft 448 kts 116°
2026-04-24 11:06 49.44002 11.52510 39159 ft 449 kts 116°
2026-04-24 11:07 49.39388 11.65039 39164 ft 449 kts 116°
2026-04-24 11:07 49.36297 11.73398 39164 ft 450 kts 116°
2026-04-24 11:08 49.33194 11.81762 39164 ft 450 kts 116°
2026-04-24 11:08 49.30089 11.90105 39167 ft 451 kts 116°
2026-04-24 11:09 49.26976 11.98445 39165 ft 452 kts 116°
2026-04-24 11:09 49.23863 12.06755 39156 ft 452 kts 117°
2026-04-24 11:10 49.20723 12.15114 39157 ft 453 kts 117°
2026-04-24 11:10 49.17579 12.23454 39155 ft 454 kts 117°
2026-04-24 11:11 49.14429 12.31786 39155 ft 455 kts 117°
2026-04-24 11:11 49.11255 12.40153 39155 ft 456 kts 117°
2026-04-24 11:12 49.08072 12.48517 39155 ft 456 kts 117°
2026-04-24 11:12 49.04880 12.56879 39156 ft 456 kts 117°
2026-04-24 11:13 49.01675 12.65251 39155 ft 457 kts 117°
2026-04-24 11:13 48.98460 12.73616 39150 ft 457 kts 117°
2026-04-24 11:14 48.95237 12.81981 39149 ft 458 kts 117°
2026-04-24 11:14 48.92006 12.90337 39150 ft 458 kts 117°
2026-04-24 11:15 48.88793 12.98623 39151 ft 458 kts 117°
2026-04-24 11:15 48.85545 13.06970 39153 ft 459 kts 117°
2026-04-24 11:16 48.82288 13.15317 39150 ft 459 kts 117°
2026-04-24 11:16 48.79029 13.23640 39149 ft 459 kts 117°
2026-04-24 11:17 48.75755 13.31977 39146 ft 459 kts 117°
2026-04-24 11:17 48.72480 13.40288 39148 ft 459 kts 117°
2026-04-24 11:18 48.69220 13.48537 39149 ft 459 kts 117°
2026-04-24 11:18 48.65717 13.56652 39148 ft 463 kts 124°
2026-04-24 11:19 48.61402 13.63938 39147 ft 468 kts 133°
2026-04-24 11:19 48.56603 13.70639 39148 ft 469 kts 133°
2026-04-24 11:20 48.51818 13.77355 39153 ft 469 kts 133°
2026-04-24 11:20 48.47065 13.84014 39150 ft 470 kts 133°
2026-04-24 11:21 48.42269 13.90714 39150 ft 470 kts 133°
2026-04-24 11:21 48.37470 13.97398 39152 ft 471 kts 133°
2026-04-24 11:22 48.32651 14.04092 39155 ft 471 kts 133°
2026-04-24 11:22 48.27827 14.10774 39156 ft 471 kts 133°
2026-04-24 11:23 48.23009 14.17431 39159 ft 471 kts 133°
2026-04-24 11:23 48.18178 14.24087 39158 ft 472 kts 134°
2026-04-24 11:24 48.13367 14.30699 39156 ft 472 kts 134°
2026-04-24 11:24 48.08529 14.37329 39151 ft 472 kts 134°
2026-04-24 11:25 48.03662 14.43980 39143 ft 472 kts 134°
2026-04-24 11:25 47.98811 14.50592 39139 ft 472 kts 134°
2026-04-24 11:26 47.94768 14.56092 39132 ft 472 kts 134°
2026-04-24 11:26 47.89176 14.63674 39129 ft 472 kts 134°
2026-04-24 11:27 47.85088 14.69206 39128 ft 473 kts 134°
2026-04-24 11:27 47.80213 14.75784 39122 ft 472 kts 134°
2026-04-24 11:28 47.75379 14.82290 39116 ft 472 kts 134°
2026-04-24 11:28 47.70512 14.88856 39105 ft 471 kts 132°
2026-04-24 11:29 47.66268 14.96148 39111 ft 465 kts 121°
2026-04-24 11:29 47.62991 15.04353 39108 ft 460 kts 114°
2026-04-24 11:30 47.59966 15.12718 39099 ft 459 kts 114°
2026-04-24 11:30 47.56926 15.21038 39095 ft 459 kts 114°
2026-04-24 11:31 47.53864 15.29361 39093 ft 461 kts 114°
2026-04-24 11:31 47.50809 15.37640 39080 ft 461 kts 114°
2026-04-24 11:32 47.47728 15.45965 39078 ft 462 kts 114°
2026-04-24 11:32 47.44642 15.54274 39082 ft 459 kts 114°
2026-04-24 11:33 47.41556 15.62557 39080 ft 460 kts 114°
2026-04-24 11:33 47.38464 15.70837 39082 ft 461 kts 114°
2026-04-24 11:34 47.35355 15.79135 39079 ft 462 kts 114°
2026-04-24 11:34 47.32240 15.87423 39081 ft 462 kts 114°
2026-04-24 11:35 47.29121 15.95695 39084 ft 462 kts 115°
2026-04-24 11:35 47.25997 16.03955 39083 ft 462 kts 114°
2026-04-24 11:36 47.22860 16.12224 39084 ft 462 kts 114°
2026-04-24 11:36 47.19715 16.20490 39082 ft 463 kts 114°
2026-04-24 11:37 47.16536 16.28663 39085 ft 465 kts 119°
2026-04-24 11:37 47.12250 16.35879 39084 ft 476 kts 135°
2026-04-24 11:38 47.06673 16.41300 39087 ft 483 kts 146°
2026-04-24 11:38 47.00839 16.46176 39085 ft 483 kts 146°
2026-04-24 11:39 46.95002 16.51069 39089 ft 483 kts 146°
2026-04-24 11:39 46.89168 16.55946 38996 ft 483 kts 146°
2026-04-24 11:40 46.83340 16.60803 39092 ft 484 kts 146°
2026-04-24 11:40 46.77472 16.65681 39088 ft 486 kts 146°
2026-04-24 11:41 46.71622 16.70531 39090 ft 486 kts 146°
2026-04-24 11:41 46.65745 16.75391 39096 ft 486 kts 146°
2026-04-24 11:42 46.59853 16.80253 39096 ft 486 kts 146°
2026-04-24 11:42 46.53963 16.85100 39097 ft 486 kts 146°
2026-04-24 11:43 46.48083 16.89927 39097 ft 485 kts 146°
2026-04-24 11:43 46.42200 16.94744 39095 ft 485 kts 146°
2026-04-24 11:44 46.36318 16.99548 39095 ft 485 kts 146°
2026-04-24 11:44 46.30478 17.04306 39094 ft 484 kts 146°
2026-04-24 11:45 46.24603 17.09081 39091 ft 484 kts 146°
2026-04-24 11:45 46.18721 17.13850 39095 ft 484 kts 146°
2026-04-24 11:46 46.12855 17.18594 39095 ft 483 kts 147°
2026-04-24 11:46 46.06985 17.23330 39099 ft 483 kts 147°
2026-04-24 11:47 46.01122 17.28048 39094 ft 482 kts 147°
2026-04-24 11:47 45.95070 17.32142 39095 ft 485 kts 153°
2026-04-24 11:48 45.88838 17.35897 39095 ft 485 kts 153°
2026-04-24 11:48 45.82621 17.39654 39098 ft 484 kts 153°
2026-04-24 11:49 45.79555 17.41502 39096 ft 471 kts 153°
2026-04-24 11:49 45.76588 17.43287 38989 ft 460 kts 153°
2026-04-24 11:49 45.73651 17.45055 38761 ft 455 kts 153°
2026-04-24 11:49 45.70720 17.46822 38474 ft 459 kts 153°
2026-04-24 11:50 45.67767 17.48602 38201 ft 462 kts 153°
2026-04-24 11:50 45.64797 17.50388 37915 ft 461 kts 153°
2026-04-24 11:50 45.61830 17.52166 37525 ft 461 kts 153°
2026-04-24 11:50 45.58911 17.53915 36857 ft 464 kts 153°
2026-04-24 11:51 45.55917 17.55707 36042 ft 468 kts 153°
2026-04-24 11:51 45.52895 17.57514 35118 ft 473 kts 153°
2026-04-24 11:51 45.49849 17.59333 34250 ft 476 kts 153°
2026-04-24 11:51 45.46785 17.61160 33332 ft 477 kts 153°
2026-04-24 11:52 45.43719 17.62986 32452 ft 478 kts 153°
2026-04-24 11:52 45.40666 17.64802 31565 ft 478 kts 154°
2026-04-24 11:52 45.37587 17.66631 30784 ft 477 kts 154°
2026-04-24 11:52 45.34544 17.68437 30258 ft 470 kts 154°
2026-04-24 11:53 45.31537 17.70218 29482 ft 468 kts 154°
2026-04-24 11:53 45.28558 17.71980 28993 ft 459 kts 154°
2026-04-24 11:53 45.25632 17.73708 28459 ft 452 kts 154°
2026-04-24 11:53 45.22743 17.75414 27859 ft 448 kts 154°
2026-04-24 11:54 45.19879 17.77103 27265 ft 443 kts 154°
2026-04-24 11:54 45.17018 17.78792 26258 ft 449 kts 154°
2026-04-24 11:54 45.14104 17.80511 25208 ft 457 kts 154°
2026-04-24 11:54 45.11172 17.82236 24594 ft 453 kts 154°
2026-04-24 11:55 45.08288 17.83930 24034 ft 448 kts 154°
2026-04-24 11:55 45.05562 17.85986 23417 ft 439 kts 142°
2026-04-24 11:55 45.03220 17.88658 22867 ft 427 kts 132°
2026-04-24 11:55 45.01291 17.91784 22325 ft 417 kts 124°
2026-04-24 11:56 44.99501 17.94992 21762 ft 412 kts 124°
2026-04-24 11:56 44.97786 17.98207 21230 ft 405 kts 121°
2026-04-24 11:56 44.96211 18.01468 20706 ft 400 kts 121°
2026-04-24 11:56 44.94637 18.04715 20173 ft 397 kts 121°
2026-04-24 11:57 44.93084 18.07908 19601 ft 395 kts 121°
2026-04-24 11:57 44.91537 18.11085 19122 ft 390 kts 121°
2026-04-24 11:57 44.90018 18.14198 18590 ft 388 kts 121°
2026-04-24 11:57 44.88488 18.17330 18038 ft 385 kts 121°
2026-04-24 11:58 44.86975 18.20421 17510 ft 381 kts 121°
2026-04-24 11:58 44.85475 18.23485 16996 ft 377 kts 121°
2026-04-24 11:58 44.83990 18.26515 16476 ft 374 kts 121°
2026-04-24 11:58 44.82519 18.29514 15957 ft 371 kts 121°
2026-04-24 11:59 44.81055 18.32497 15451 ft 369 kts 121°
2026-04-24 11:59 44.79592 18.35474 14938 ft 366 kts 121°
2026-04-24 11:59 44.78148 18.38411 14434 ft 365 kts 121°
2026-04-24 11:59 44.76702 18.41347 13920 ft 364 kts 121°
2026-04-24 12:00 44.75276 18.44237 13393 ft 363 kts 122°
2026-04-24 12:00 44.73843 18.47139 12871 ft 361 kts 121°
2026-04-24 12:00 44.72417 18.50023 12496 ft 354 kts 122°
2026-04-24 12:00 44.71033 18.52814 12373 ft 341 kts 121°
2026-04-24 12:01 44.69697 18.55507 12246 ft 329 kts 121°
2026-04-24 12:01 44.68417 18.58090 12120 ft 315 kts 121°
2026-04-24 12:01 44.67195 18.60547 11967 ft 298 kts 121°
2026-04-24 12:01 44.66040 18.62870 11801 ft 282 kts 121°
2026-04-24 12:02 44.64928 18.65108 11442 ft 278 kts 121°
2026-04-24 12:02 44.63832 18.67334 11139 ft 275 kts 118°
2026-04-24 12:02 44.63031 18.69691 10971 ft 262 kts 103°
2026-04-24 12:02 44.62656 18.72200 10481 ft 265 kts 94°
2026-04-24 12:03 44.62381 18.74737 10129 ft 266 kts 95°
2026-04-24 12:03 44.62091 18.77302 9787 ft 266 kts 95°
2026-04-24 12:03 44.61795 18.79865 9446 ft 265 kts 95°
2026-04-24 12:03 44.61496 18.82406 9092 ft 264 kts 95°
2026-04-24 12:04 44.61194 18.84941 8772 ft 263 kts 95°
2026-04-24 12:04 44.60896 18.87465 8447 ft 262 kts 95°
2026-04-24 12:04 44.60600 18.89989 8148 ft 260 kts 95°
2026-04-24 12:04 44.60307 18.92500 7833 ft 260 kts 95°
2026-04-24 12:05 44.60012 18.94996 7495 ft 260 kts 95°
2026-04-24 12:05 44.59558 18.97449 7197 ft 263 kts 114°
2026-04-24 12:05 44.58378 18.99404 6903 ft 268 kts 144°
2026-04-24 12:05 44.56696 19.00533 6555 ft 269 kts 162°
2026-04-24 12:06 44.54901 19.01238 6238 ft 267 kts 167°
2026-04-24 12:06 44.53102 19.01876 6004 ft 264 kts 167°
2026-04-24 12:06 44.51318 19.02184 5635 ft 260 kts 184°
2026-04-24 12:06 44.49528 19.01909 5342 ft 258 kts 191°
2026-04-24 12:07 44.47752 19.01576 5099 ft 257 kts 190°
2026-04-24 12:07 44.46000 19.01229 4912 ft 250 kts 199°
2026-04-24 12:07 44.44542 19.00103 4579 ft 233 kts 231°
2026-04-24 12:07 44.43777 18.98227 4248 ft 218 kts 263°
2026-04-24 12:08 44.43822 18.96180 3855 ft 207 kts 283°
2026-04-24 12:08 44.44063 18.94235 3766 ft 198 kts 283°
2026-04-24 12:09 44.44528 18.89407 3522 ft 166 kts 281°
2026-04-24 12:09 44.44649 18.87879 3434 ft 151 kts 281°
2026-04-24 12:09 44.44759 18.86471 3405 ft 139 kts 282°
2026-04-24 12:09 44.44847 18.85181 3242 ft 130 kts 282°
2026-04-24 12:10 44.44947 18.83944 3077 ft 127 kts 283°
2026-04-24 12:10 44.45043 18.82731 2798 ft 127 kts 283°
2026-04-24 12:10 44.45149 18.81494 2422 ft 131 kts 283°
2026-04-24 12:11 44.45371 18.78958 1860 ft 133 kts 283°
2026-04-24 12:11 44.45466 18.77691 1589 ft 128 kts 283°
2026-04-24 12:11 44.45544 18.76466 1378 ft 121 kts 281°
2026-04-24 12:11 44.45634 18.75293 1153 ft 122 kts 283°
2026-04-24 12:12 44.45734 18.74084 851 ft 127 kts 283°
2026-04-24 12:12 44.45851 18.72681 787 ft 76 kts 276°
2026-04-24 12:12 44.45878 18.72314 787 ft 44 kts 277°
2026-04-24 12:12 44.45911 18.71899 787 ft 41 kts 275°
2026-04-24 12:13 44.45943 18.71569 783 ft 19 kts 302°
2026-04-24 12:13 44.46058 18.71548 783 ft 15 kts
2026-04-24 12:13 44.46072 18.71552 782 ft 0 kts 12°